GFSWCAN_500_rhum_015.txt.gz
RH
43 35 23 20 12 6 2 2 3 22 28 50 66 78 100 88 97 100 100 97 89 99 100 70 60 79 84 100 94 88 94 96 99 92 91 75 25 24 38 52 46 49 60 72 67 68 78 72 63 56 64 59 60 68
43 34 24 22 14 6 2 2 2 16 30 64 78 82 100 100 100 99 100 100 100 100 100 100 84 89 89 95 77 79 93 97 92 94 96 84 48 37 31 47 51 53 71 76 82 71 69 78 79 78 76 76 75 71
42 34 27 24 15 5 2 2 2 7 30 39 92 80 92 95 79 100 100 100 100 100 94 97 76 98 93 98 83 97 99 97 98 99 99 74 60 58 44 60 72 72 66 82 92 92 85 75 78 92 93 92 94 94
43 36 30 27 15 6 3 2 2 3 20 41 54 91 94 80 89 97 99 100 100 93 81 68 78 81 67 96 96 91 98 98 100 100 97 83 95 83 75 64 70 77 69 77 92 86 81 79 83 90 90 96 99 97
46 38 33 28 14 7 3 2 2 2 16 35 45 78 73 84 100 100 100 100 99 84 70 80 94 66 66 93 99 98 99 99 98 95 92 91 100 99 86 76 75 90 88 85 79 80 81 80 85 80 83 81 92 92
46 39 36 28 11 4 3 2 2 2 10 19 33 72 77 86 90 95 95 92 100 71 72 78 84 69 73 96 98 99 100 94 97 93 87 93 100 90 78 86 95 94 100 94 86 87 87 76 78 82 85 83 72 78
46 40 37 29 13 5 3 2 2 2 4 14 35 62 74 91 92 85 81 100 92 69 71 88 74 52 75 96 100 99 99 98 98 98 98 96 98 80 71 78 87 83 84 93 84 84 85 89 82 75 95 91 94 98
46 42 38 30 15 5 4 2 2 2 2 12 24 49 62 92 100 99 100 98 100 91 88 90 61 66 78 87 99 94 99 98 99 99 98 98 100 96 84 76 70 79 84 86 94 96 78 78 78 95 99 100 98 92
46 44 39 32 15 6 4 2 2 2 2 11 26 34 71 90 100 98 95 92 91 90 83 97 61 61 84 89 95 95 82 84 98 99 98 98 97 94 85 81 94 95 95 95 92 97 83 90 96 100 97 96 68 61
46 47 41 34 18 6 6 2 1 1 2 31 49 47 58 90 88 89 100 85 88 84 80 97 74 60 79 95 98 92 89 89 92 98 98 98 98 98 96 89 97 93 84 78 89 99 99 91 95 95 97 83 78 76
45 49 44 37 26 8 6 2 1 1 2 47 58 48 62 76 82 100 100 95 84 72 83 100 100 65 72 80 91 92 95 94 97 97 92 88 86 78 79 83 93 86 79 88 81 94 98 89 93 93 80 68 64 59
45 48 46 40 32 11 7 3 1 1 6 52 58 68 98 90 76 92 90 82 77 78 86 100 97 61 62 76 87 90 92 95 91 92 92 98 88 80 78 85 94 93 97 100 79 64 67 68 70 66 63 62 64 60
45 48 47 43 34 12 8 3 1 1 11 48 70 90 96 88 100 94 67 63 50 55 70 96 100 98 82 63 67 87 86 86 88 78 83 90 85 74 76 82 92 93 96 91 84 79 73 71 68 70 73 75 65 46
47 49 48 45 38 14 9 5 2 1 10 55 63 70 71 94 93 64 62 68 50 76 98 100 97 92 94 89 82 81 86 85 82 85 81 78 73 74 74 78 88 93 94 93 85 76 70 69 76 77 68 53 56 68
49 52 52 47 41 26 10 7 3 1 2 60 83 98 81 94 80 64 62 60 73 78 100 100 100 100 100 94 87 73 70 78 86 94 89 86 77 70 70 72 75 82 84 90 92 89 82 74 67 63 64 71 86 96
50 57 58 53 45 35 13 9 4 2 1 6 69 100 96 84 69 72 64 72 81 80 100 99 96 98 88 80 70 73 68 67 98 94 84 80 80 79 80 76 70 65 62 63 66 68 64 59 63 68 78 93 99 100
50 54 58 57 50 38 16 11 5 4 2 2 28 99 99 76 70 67 67 82 89 75 84 91 89 91 90 77 66 64 69 99 92 81 74 73 72 73 65 57 56 58 56 54 57 63 67 71 88 96 100 100 100 99
57 57 60 56 54 44 22 12 7 4 3 3 8 75 100 80 68 64 65 84 92 84 82 86 89 85 70 59 71 97 98 77 73 70 64 59 58 65 74 68 56 49 47 45 43 49 61 73 82 94 99 95 86 78
60 59 63 59 56 46 27 14 12 6 4 3 15 74 96 94 79 76 68 68 78 88 92 84 86 70 69 91 100 99 86 77 68 62 57 55 54 60 67 73 73 68 66 62 58 59 60 62 65 68 71 76 82 87
58 55 61 61 57 47 35 16 14 9 5 4 4 56 95 92 96 86 80 77 82 90 84 74 67 76 100 100 100 100 95 84 74 67 58 58 66 72 86 82 78 77 75 78 79 79 78 79 84 87 90 90 90 85
61 60 62 60 58 50 23 18 14 9 7 4 4 4 56 94 98 100 100 100 100 100 77 61 68 80 100 100 100 98 97 91 80 63 51 53 67 77 87 86 79 78 80 82 80 81 82 79 77 78 81 84 86 89
69 68 66 63 57 35 21 18 11 8 6 5 4 4 4 53 100 100 100 100 100 98 70 66 72 93 100 100 100 100 95 84 73 70 66 74 85 86 90 94 91 89 85 85 87 85 83 85 87 89 93 97 100 100
72 69 64 63 49 26 24 15 8 7 5 5 6 6 6 5 71 100 100 100 100 100 76 72 74 90 100 100 100 100 99 93 83 84 84 84 85 88 93 100 100 94 92 90 92 94 96 98 98 99 97 99 100 96
71 65 63 58 42 28 20 9 7 6 6 6 7 8 9 6 10 92 100 100 100 100 100 93 78 94 100 100 100 100 100 98 98 100 94 85 89 93 100 100 100 100 100 100 100 100 100 100 100 100 98 100 99 89
73 70 64 52 32 23 11 7 6 6 6 7 9 11 14 10 8 22 97 100 100 100 100 100 100 97 100 100 100 100 100 98 99 99 98 98 98 96 99 100 100 100 100 100 100 100 100 100 100 100 100 93 93 93
68 64 51 32 25 12 7 6 6 7 8 9 11 15 18 16 8 14 64 100 100 100 100 100 100 100 100 100 100 100 100 100 99 98 98 98 100 100 100 100 100 100 100 100 100 100 100 100 99 88 88 90 94 100
69 44 33 24 12 7 6 7 7 8 9 12 17 20 19 18 10 14 62 98 100 100 100 100 100 100 100 100 100 100 100 100 100 100 100 100 100 100 100 100 100 100 100 100 100 100 99 95 96 92 94 98 100 100
45 40 24 13 7 6 6 7 9 11 14 18 24 23 20 16 13 10 33 94 100 100 100 100 100 100 100 100 100 100 100 100 97 97 100 100 100 100 100 100 100 100 100 100 100 98 100 98 97 100 100 100 100 100
47 26 14 8 6 6 7 10 12 18 19 28 29 25 16 12 11 10 20 73 100 100 100 100 100 100 100 100 100 100 100 100 99 99 100 100 100 100 100 100 100 100 100 100 98 100 100 100 100 100 100 100 100 96
29 15 10 6 6 7 9 10 19 26 37 40 33 22 9 9 8 9 16 67 100 100 99 100 100 99 100 100 87 91 100 100 100 100 100 100 100 100 100 100 100 100 98 100 100 100 100 100 100 100 100 100 98 95
18 11 7 7 7 8 10 13 23 45 49 45 38 23 11 10 9 10 30 82 100 100 97 99 98 100 99 100 100 100 100 100 100 100 100 100 100 100 100 100 100 100 100 100 100 100 100 100 100 100 100 98 93 87
13 8 7 8 10 12 12 16 32 49 55 51 47 39 20 12 12 24 78 100 100 100 100 100 100 100 100 100 100 100 100 100 100 100 100 100 100 100 100 100 100 100 100 100 100 100 100 100 100 100 95 88 80 73
10 7 8 9 13 22 21 26 47 56 58 58 62 54 48 20 18 70 100 100 100 100 100 100 100 100 100 100 100 100 100 100 100 100 100 100 100 100 100 100 100 100 100 100 100 100 100 98 93 88 82 78 78 74

GFSWCAN_500_rhum_018.txt.gz
RH
36 33 32 31 27 20 13 5 2 2 21 35 40 45 41 67 82 83 92 88 95 100 99 95 100 100 97 94 99 100 99 90 82 84 100 98 71 32 46 60 52 49 59 64 58 57 54 52 63 70 75 74 78 86
40 35 32 30 29 21 12 6 2 2 11 32 53 62 87 83 86 72 78 93 100 94 90 99 100 98 95 96 100 100 95 95 100 100 100 99 87 46 40 53 55 56 51 65 56 64 53 48 54 62 57 62 69 68
43 37 33 31 29 22 12 6 2 2 2 16 44 61 80 78 70 68 90 97 96 89 92 100 100 95 92 91 96 98 91 100 95 100 99 94 80 59 39 35 49 60 53 51 62 75 80 74 63 68 85 80 74 69
47 40 35 31 30 24 14 7 2 2 2 7 41 62 86 85 83 70 81 93 88 100 94 94 100 91 84 81 85 98 100 98 100 94 94 92 84 59 54 48 50 72 74 68 79 82 70 70 67 71 82 86 87 81
49 41 36 32 31 24 19 9 2 1 2 5 21 39 92 94 89 92 85 86 94 91 95 100 95 80 83 69 68 97 98 97 100 95 88 95 71 70 67 69 79 86 80 62 71 86 86 86 89 85 90 91 98 97
50 43 36 35 33 26 21 8 4 1 2 3 16 38 64 81 97 77 65 71 79 85 93 88 81 79 77 67 78 100 99 96 98 96 96 89 92 80 71 79 88 70 62 60 68 88 98 92 92 90 94 98 92 90
54 44 37 37 34 28 18 7 4 1 1 2 12 33 54 80 84 62 53 88 92 96 95 82 74 78 91 84 92 100 99 100 96 91 90 99 99 84 83 94 100 84 78 77 76 83 97 96 84 83 88 93 98 94
55 45 38 38 33 29 15 7 4 1 1 2 15 23 40 85 82 83 99 92 82 87 98 81 86 89 81 78 97 100 99 96 96 91 87 92 99 91 87 96 83 70 80 88 93 93 92 90 95 98 90 92 96 100
58 47 39 40 34 30 15 8 4 1 1 2 10 31 36 87 88 91 94 85 81 85 86 72 88 88 83 91 98 99 99 98 96 92 88 93 99 98 97 80 68 64 83 94 96 92 98 88 87 87 90 98 99 98
60 50 41 40 36 31 19 9 4 1 1 2 6 35 47 90 91 100 100 83 79 79 85 84 96 92 76 82 98 98 100 96 93 92 91 92 100 96 98 84 79 87 99 99 98 98 100 92 99 100 100 99 92 69
60 52 42 40 38 32 23 10 4 1 2 2 6 30 63 91 95 96 99 76 62 64 76 90 100 99 78 77 97 100 99 98 94 95 91 92 93 90 98 94 89 96 97 98 97 98 99 99 100 100 100 100 93 83
62 54 44 39 40 35 26 10 5 1 2 3 17 59 100 99 100 100 87 75 59 66 75 89 100 93 81 78 90 98 97 95 96 97 98 95 82 78 81 87 89 97 98 98 98 100 100 98 87 91 98 97 86 76
66 57 44 41 41 37 29 12 6 2 3 8 66 100 100 99 100 91 70 46 51 69 100 100 100 100 100 88 79 92 91 89 94 91 88 92 86 84 83 87 88 95 100 100 99 96 90 84 86 84 79 75 73 78
69 58 44 41 42 39 33 18 8 4 1 21 81 100 100 100 91 74 63 57 52 80 99 99 98 89 91 81 72 77 75 80 85 94 88 81 73 82 86 82 80 94 100 100 100 99 97 92 93 88 86 84 82 82
76 60 47 44 43 39 37 25 12 6 2 10 62 98 100 93 82 62 61 57 58 73 100 100 99 99 99 88 83 70 66 65 83 94 95 96 82 73 73 76 80 84 89 97 99 99 99 96 86 85 91 95 87 73
80 61 50 47 45 43 41 31 17 11 5 2 12 54 90 99 68 68 65 52 56 73 99 96 99 97 89 78 74 77 70 69 84 94 83 80 86 83 76 74 71 73 73 77 84 90 93 94 92 85 77 76 78 95
79 62 54 50 46 46 45 37 26 14 8 4 2 16 46 83 88 76 65 60 63 72 91 96 94 95 82 66 60 72 83 93 99 84 65 64 73 75 82 80 76 75 75 74 72 69 68 72 78 84 90 95 100 100
74 61 56 50 45 45 50 42 33 15 12 6 4 3 19 50 60 61 60 60 66 78 91 92 87 97 77 70 93 100 91 85 72 62 49 50 58 61 66 73 73 66 60 59 58 55 53 56 63 74 89 100 100 100
73 64 60 52 48 46 47 46 38 17 14 8 6 4 3 8 43 60 65 63 66 76 88 92 86 82 82 80 98 97 87 78 71 62 53 53 57 62 65 62 58 63 65 58 52 50 51 53 61 72 76 75 77 80
73 67 64 58 53 50 50 46 35 19 18 10 8 5 4 3 10 51 83 86 87 92 92 79 72 75 81 85 99 100 97 92 80 67 58 56 58 59 58 57 58 58 67 76 74 69 68 66 64 66 70 77 84 94
72 69 65 61 56 52 51 45 39 24 21 15 9 6 4 4 4 21 100 100 100 100 100 66 63 72 78 80 93 100 99 98 88 80 67 65 64 61 58 60 69 72 81 82 78 80 84 89 93 93 90 95 94 88
74 70 69 61 56 54 57 50 39 28 24 14 8 6 4 4 4 4 27 98 100 100 100 92 62 59 69 82 88 96 97 100 94 84 77 76 80 73 61 60 73 82 90 94 96 93 92 90 92 97 95 86 85 89
77 74 70 61 60 58 57 51 42 30 21 12 8 5 4 4 4 4 5 28 99 100 100 100 84 72 71 80 100 99 97 97 87 84 82 85 85 75 76 81 86 92 96 97 98 100 99 99 100 98 96 97 98 99
78 76 64 63 64 60 55 49 36 28 15 9 6 5 4 4 5 5 6 6 18 95 100 100 100 100 90 94 100 100 100 100 95 89 86 91 89 89 89 92 99 99 99 100 100 100 100 100 100 100 100 100 100 100
79 76 70 64 60 57 47 38 32 17 11 8 6 5 5 5 5 7 8 10 7 16 100 100 100 100 100 100 100 100 100 99 100 96 92 96 100 99 95 97 100 100 100 100 100 100 100 100 100 100 100 99 100 100
83 69 71 60 58 49 44 36 20 11 8 6 5 5 5 6 7 9 14 14 10 7 45 100 100 100 100 100 100 100 100 96 99 98 99 100 100 99 100 100 100 100 100 100 100 100 100 100 100 100 100 100 100 100
81 70 59 50 50 50 43 25 14 9 6 5 6 6 6 7 13 18 16 15 14 9 10 73 100 100 100 100 100 100 100 100 100 100 100 97 99 100 100 100 100 100 100 100 100 100 100 100 100 100 99 99 100 100
76 62 59 58 59 52 33 18 11 7 6 6 7 8 11 18 22 20 17 15 14 12 10 21 69 100 100 100 100 100 100 100 100 100 96 95 91 98 95 94 100 100 98 99 100 100 100 100 100 100 100 100 100 100
58 62 66 66 57 40 23 14 8 6 6 7 8 11 23 32 27 20 15 13 13 12 12 32 68 86 100 100 100 100 100 100 100 98 94 99 100 100 100 100 100 100 100 100 100 100 100 100 100 100 100 100 100 100
67 67 67 60 47 30 21 11 6 6 7 7 10 22 38 36 26 14 8 7 8 10 15 43 98 100 99 99 100 100 100 100 100 100 100 100 100 100 100 100 100 100 100 100 100 100 100 100 100 100 100 100 100 99
71 65 61 50 37 30 14 7 6 8 8 9 17 34 43 39 29 13 7 7 7 9 48 97 100 100 100 99 100 100 100 100 100 100 100 100 100 100 100 100 100 100 100 100 98 100 100 100 100 100 100 100 100 100
61 59 51 45 39 19 8 6 7 9 11 14 30 43 47 46 37 14 9 8 9 74 100 100 100 100 100 100 99 100 100 100 100 100 100 100 100 100 100 100 100 100 98 100 100 100 100 100 100 100 100 100 100 100
59 57 56 51 33 12 7 7 9 11 14 20 36 48 51 53 45 15 14 28 71 100 100 100 100 100 100 100 100 100 100 100 100 100 100 100 100 100 100 100 100 100 100 100 100 100 100 100 100 100 100 100 96 90

GFSWCAN_500_rhum_024.txt.gz
RH
65 58 57 55 58 47 47 25 20 21 13 4 6 24 28 49 63 78 88 97 90 84 81 69 85 92 92 100 100 100 89 83 82 84 99 80 63 61 61 57 63 53 54 64 68 74 74 86 84 95 97 97 89 100
62 65 53 54 64 48 49 29 21 19 18 6 1 24 23 36 49 63 90 88 76 70 74 69 77 92 96 100 100 98 96 88 89 96 98 89 67 45 46 41 59 53 47 48 55 61 68 68 69 70 79 81 92 92
59 69 50 58 61 52 50 32 21 19 19 9 2 6 30 32 56 65 68 90 69 73 76 75 71 79 89 85 89 95 90 99 100 96 97 89 62 38 37 36 34 53 49 44 48 52 66 76 72 73 79 76 75 70
56 64 54 58 60 57 53 34 23 20 20 11 4 1 32 36 52 59 56 62 68 74 71 83 68 66 74 89 90 90 84 98 99 94 84 86 71 50 38 32 29 33 48 57 54 48 56 70 72 80 90 86 86 90
63 63 62 63 63 56 55 36 24 21 20 11 4 1 33 45 42 54 57 60 61 65 66 77 77 78 85 87 94 96 86 94 92 92 91 84 71 55 55 45 37 33 33 50 62 58 54 72 76 76 94 99 97 98
72 77 73 68 63 54 57 37 24 22 20 9 4 2 30 55 49 53 60 58 61 59 74 79 76 75 100 100 100 88 96 98 94 88 94 84 68 54 63 80 68 52 37 37 48 61 62 75 85 84 94 97 93 94
80 94 80 69 67 57 58 35 23 22 19 6 3 2 5 69 44 50 53 56 54 58 68 73 64 79 99 99 96 97 99 100 94 95 100 92 76 68 76 85 72 57 49 53 52 74 79 74 94 92 98 87 87 87
79 85 77 78 78 67 62 32 22 23 16 4 3 2 5 67 45 43 47 62 62 72 75 73 79 85 94 96 97 98 99 99 97 97 97 93 74 75 86 81 72 73 71 79 71 71 80 79 90 94 93 86 89 90
88 84 80 83 88 71 64 30 23 23 14 4 2 2 23 78 72 41 49 73 83 78 76 75 74 81 84 92 97 94 100 100 97 98 98 97 92 91 89 91 81 76 70 74 84 92 95 93 90 95 98 96 86 91
96 95 83 87 91 69 62 30 24 23 12 4 2 6 71 100 57 72 100 100 91 76 75 82 75 93 96 100 93 83 95 100 100 99 100 100 100 80 81 95 86 80 78 70 82 93 95 98 98 98 97 100 96 95
87 86 78 87 84 72 63 30 25 24 12 4 2 33 100 100 100 100 100 100 88 71 74 76 80 86 86 90 86 74 72 97 100 100 100 95 96 91 92 89 78 82 84 75 68 78 88 98 99 99 99 98 95 96
75 77 99 86 80 72 65 33 28 24 13 4 4 58 100 100 100 100 96 94 92 92 82 78 76 77 77 78 79 74 68 86 96 98 100 100 100 98 95 94 95 98 86 81 86 92 99 100 100 100 98 100 99 97
83 75 93 81 78 69 68 36 30 27 15 5 6 50 100 98 97 86 77 84 88 89 84 80 74 68 77 76 82 83 71 70 82 92 97 100 100 100 97 95 96 98 98 98 98 100 97 97 98 98 98 98 97 97
88 88 93 79 69 71 69 39 32 30 21 7 7 32 92 88 77 61 60 79 82 88 81 72 69 67 73 77 82 86 80 74 74 92 93 100 100 99 100 100 100 100 100 99 99 99 100 99 99 98 99 98 98 97
82 94 100 94 77 76 69 42 34 32 29 12 7 19 66 80 78 60 49 64 80 83 81 77 74 74 76 77 83 89 95 92 90 83 94 95 96 100 100 100 99 99 99 99 98 98 98 99 100 99 99 98 98 98
94 100 100 100 85 82 68 45 37 36 33 22 10 7 21 57 66 68 56 45 58 70 70 70 64 70 87 80 83 81 85 98 100 83 79 85 88 96 99 100 100 100 100 99 100 100 99 98 99 99 99 100 100 99
100 100 100 100 96 89 69 48 42 38 36 34 18 12 8 10 43 72 73 63 62 66 65 71 66 58 59 71 78 78 100 91 96 91 81 80 80 83 93 98 98 100 100 98 100 99 99 100 100 100 100 100 99 99
100 100 100 100 100 94 72 54 46 40 39 36 33 20 17 14 8 12 39 58 57 60 90 98 78 62 50 47 62 78 99 88 87 91 91 90 82 74 76 85 92 87 87 91 92 87 86 86 83 82 82 84 85 86
100 100 100 100 98 94 76 60 47 42 42 39 36 35 34 21 20 14 9 6 19 46 57 62 71 62 59 50 49 58 78 93 87 86 83 80 85 79 72 70 76 81 77 78 82 84 86 78 67 62 61 60 59 63
100 100 100 100 99 95 81 68 57 48 44 45 40 37 36 33 24 21 17 13 11 8 5 9 34 59 70 70 62 57 59 72 84 80 84 76 81 83 76 69 70 78 73 73 80 83 84 83 77 69 66 66 69 72
100 100 100 99 100 98 86 71 60 53 47 48 45 42 40 37 36 28 24 21 18 16 13 9 6 4 13 39 56 56 58 62 78 80 88 77 81 84 80 75 67 74 76 74 78 83 80 79 83 86 86 83 80 81
100 100 100 99 98 94 87 74 64 61 47 49 46 44 40 37 37 36 31 27 24 21 19 14 9 6 4 4 8 27 50 58 60 80 100 96 82 80 81 77 74 70 77 77 78 78 78 81 83 85 89 93 98 98
100 100 100 98 93 89 92 83 70 60 44 50 48 44 38 37 36 36 35 32 29 26 23 17 11 8 6 4 3 3 10 50 74 66 79 98 97 88 82 81 96 89 81 82 78 79 81 85 92 97 100 100 100 100
100 100 100 96 89 90 95 84 71 62 54 53 43 40 41 42 42 40 38 33 30 25 18 13 9 6 4 3 3 3 3 4 38 94 74 90 100 98 91 86 99 98 94 91 87 92 88 87 95 99 100 100 100 100
100 100 97 92 96 98 96 79 72 67 56 44 41 44 45 44 41 38 35 30 23 15 10 7 4 3 3 3 4 4 4 4 56 100 100 99 100 100 96 96 100 99 93 93 100 100 100 100 100 100 100 100 99 100
100 95 89 94 100 98 89 83 74 63 53 45 47 47 44 42 41 35 29 19 12 8 4 3 3 4 4 4 4 5 5 5 19 100 100 100 100 100 100 100 100 100 100 100 100 100 100 100 100 100 100 100 100 100
95 92 100 100 98 94 92 86 73 58 50 51 53 44 41 41 35 29 20 12 7 4 3 4 5 5 6 8 6 6 8 7 7 77 100 100 100 100 100 100 100 100 99 100 100 100 100 100 100 100 100 100 100 100
99 100 100 96 92 92 82 77 62 52 52 48 44 45 42 39 31 23 14 7 4 4 4 5 5 6 11 14 14 11 11 10 8 41 98 100 100 100 100 100 100 100 100 100 100 100 100 100 100 100 100 100 100 98
100 98 86 85 86 83 84 73 58 52 48 44 44 46 43 36 27 17 7 4 4 5 5 7 8 10 13 14 14 14 12 12 9 15 78 100 100 100 100 100 100 100 100 100 100 100 100 100 100 100 100 100 100 100
97 84 86 94 94 89 75 62 55 52 49 47 48 47 41 30 17 9 4 4 5 6 6 10 12 13 11 8 8 12 13 12 10 13 35 99 100 100 100 100 100 100 100 100 100 100 100 100 100 100 100 100 100 100
99 95 100 96 87 74 63 56 53 50 52 52 48 42 36 20 8 5 4 5 5 6 12 16 14 6 4 4 4 9 12 12 15 35 51 98 100 100 100 100 100 100 100 100 100 100 100 100 100 100 100 100 100 100
100 100 95 88 81 71 62 57 52 52 52 48 45 39 28 14 6 5 6 6 6 13 18 16 7 7 11 6 6 9 12 20 35 91 99 100 100 100 100 100 100 100 100 100 100 100 100 100 100 100 100 100 100 100
100 95 87 84 79 71 62 54 52 53 51 48 44 32 20 11 5 5 6 6 10 20 20 13 19 38 40 26 19 17 19 50 82 100 100 100 100 99 100 100 100 100 100 100 100 100 100 100 100 100 100 100 100 100

GFSWCAN_500_rhum_027.txt.gz
RH
71 57 48 43 39 45 45 45 44 39 25 22 19 8 13 35 44 48 52 51 63 64 57 54 68 76 83 95 98 100 100 96 89 66 61 68 69 41 68 76 68 62 63 66 64 69 61 58 60 53 72 86 95 99
72 58 51 45 38 56 48 44 45 44 26 23 20 11 3 25 44 79 68 57 64 53 62 60 78 92 100 100 100 100 100 96 93 75 63 70 73 45 61 66 62 60 52 64 69 68 68 66 62 64 72 65 72 88
78 62 50 54 40 60 48 47 47 46 25 21 20 13 4 13 30 44 78 64 67 59 56 60 71 87 95 100 100 100 100 99 93 85 84 90 90 59 62 58 48 55 49 53 59 66 66 62 69 65 68 76 73 69
83 62 60 58 47 61 54 53 52 44 24 20 19 14 4 4 54 49 72 76 70 66 63 61 65 94 95 98 98 99 100 98 97 96 92 97 90 69 63 48 42 37 43 54 58 53 51 60 68 71 77 87 86 81
94 71 51 58 57 64 63 62 55 42 23 21 18 12 3 2 77 76 49 48 62 60 63 72 76 74 77 88 99 93 93 84 87 92 92 90 89 73 53 38 38 35 32 34 48 63 59 56 64 74 76 83 87 88
89 78 59 57 64 66 73 67 60 39 22 20 16 8 2 3 47 93 65 55 45 56 62 58 72 77 70 84 98 98 97 85 79 83 85 80 80 56 48 50 54 31 42 46 39 36 48 61 63 82 84 91 91 92
87 83 63 56 65 69 80 76 61 38 24 20 14 5 2 2 42 91 67 53 67 66 59 62 66 78 74 92 98 100 97 100 90 83 80 74 73 58 44 72 69 37 70 68 51 48 56 78 82 85 90 93 90 91
83 67 66 63 72 79 78 77 63 37 24 18 11 2 2 2 46 92 78 64 70 66 64 60 67 65 72 95 100 100 100 100 100 91 87 75 73 69 81 58 64 74 69 66 74 77 73 86 81 78 97 98 96 95
89 71 61 61 80 80 75 73 62 36 24 15 8 2 2 15 55 65 68 63 72 69 61 64 69 80 87 97 100 100 100 100 100 100 93 85 85 92 69 63 59 66 70 72 86 87 80 92 98 89 100 100 99 97
74 80 64 61 82 85 81 74 62 34 25 13 4 3 6 49 57 68 66 62 81 75 78 83 69 73 83 91 98 99 100 100 100 100 98 99 89 89 88 84 86 88 89 80 80 86 92 99 99 94 96 99 100 100
82 78 74 64 77 74 82 73 61 32 25 11 4 8 32 66 72 68 68 58 58 78 85 75 70 65 74 92 100 100 96 98 100 100 100 100 100 96 94 97 95 89 98 91 84 79 88 98 97 97 97 100 98 99
98 80 72 69 78 72 86 77 59 34 27 10 6 17 37 72 81 74 46 58 87 96 83 71 60 59 74 84 89 100 97 92 99 99 99 99 100 100 100 92 92 98 91 88 85 71 73 79 92 100 97 98 95 99
97 94 80 78 76 77 83 85 59 35 29 14 7 48 52 66 75 46 50 71 80 86 76 64 60 62 73 77 78 82 93 86 98 100 100 100 99 100 100 98 97 97 99 100 84 78 90 97 100 100 100 100 98 98
100 100 94 87 88 79 90 93 60 37 30 21 7 50 68 50 46 63 78 90 91 86 81 74 68 63 64 68 73 74 72 91 87 92 100 100 100 96 97 98 100 99 98 99 99 98 97 96 99 98 98 97 99 99
100 100 100 86 90 76 100 99 62 41 33 29 11 11 45 63 62 58 73 82 79 88 90 83 76 68 58 54 59 73 80 84 93 88 85 96 100 100 97 99 98 99 100 100 99 98 99 100 100 100 99 99 99 99
100 98 96 100 96 89 100 100 68 47 38 34 24 10 12 32 69 65 59 56 62 68 77 85 83 81 69 53 52 71 81 90 95 98 93 87 85 95 100 99 100 99 98 99 99 99 99 99 100 99 99 99 100 100
94 100 99 100 100 100 100 100 76 53 43 39 36 20 10 7 20 49 80 76 56 57 62 64 68 75 72 67 54 62 93 100 87 85 90 92 83 76 83 92 99 99 100 99 98 97 97 98 99 100 100 100 100 100
90 100 98 100 100 100 100 99 82 57 48 45 41 38 23 17 14 8 13 40 58 59 60 60 60 61 57 52 58 64 72 80 88 88 89 82 82 82 76 78 87 95 100 98 98 99 95 93 98 100 97 94 92 90
100 100 100 100 100 100 100 100 90 66 57 53 48 43 42 35 30 23 19 13 8 13 26 46 52 51 56 51 57 60 63 70 72 77 88 80 79 71 71 76 80 78 79 97 97 91 89 93 91 86 78 72 73 73
100 94 100 100 100 100 100 100 96 80 65 56 52 48 43 42 40 39 36 28 23 20 14 11 8 8 14 28 42 46 48 52 58 66 71 80 74 72 71 69 70 80 78 78 79 76 74 74 80 90 87 73 64 60
100 99 100 100 100 100 100 100 100 95 81 66 57 51 47 42 41 40 39 38 38 31 27 24 20 17 15 15 10 6 7 19 38 46 62 74 68 76 70 72 73 75 86 77 76 73 70 73 83 90 88 87 82 81
100 100 100 100 100 100 100 100 100 100 87 74 65 58 55 48 44 41 39 37 37 38 36 31 28 26 25 24 22 18 12 7 4 8 25 50 74 72 70 74 77 78 88 99 88 76 69 70 77 82 79 78 84 90
100 100 100 100 100 99 100 100 100 100 93 82 71 64 53 50 49 43 38 39 37 37 37 36 35 33 31 28 25 22 18 14 10 8 5 7 34 68 75 69 74 90 92 89 97 92 76 72 73 80 82 86 92 99
100 100 100 100 97 100 100 100 100 99 90 81 72 63 56 50 42 38 41 41 40 40 38 36 33 31 27 22 18 15 13 11 9 7 5 4 4 15 54 83 79 92 100 100 95 89 85 83 83 90 96 100 100 100
100 100 97 98 100 100 100 100 100 98 98 86 73 67 58 44 39 38 42 42 40 37 34 32 26 22 18 15 13 12 10 8 5 3 2 2 2 3 6 40 85 86 95 100 100 98 96 96 100 99 100 100 100 100
100 100 96 100 100 100 100 100 99 100 95 86 77 68 55 43 41 39 36 36 36 33 30 27 25 22 18 14 9 6 3 2 2 2 3 2 2 3 4 39 92 88 86 100 100 100 99 95 97 100 100 100 100 100
94 96 100 100 100 100 98 100 100 100 97 87 81 62 48 42 39 36 35 37 34 30 28 26 21 15 9 5 3 2 3 3 3 3 4 4 4 4 5 67 100 100 100 98 100 100 100 98 100 100 100 100 100 100
93 100 100 100 100 100 100 100 100 100 94 87 70 59 48 44 40 36 37 36 34 31 26 20 13 6 3 3 3 4 4 4 4 4 4 4 4 4 8 96 100 100 100 100 100 100 100 100 100 100 100 100 100 100
100 100 100 100 98 91 100 100 100 100 90 76 65 56 48 43 40 37 36 34 31 26 18 11 6 4 3 4 4 5 7 8 8 10 9 7 5 5 19 98 100 100 100 100 100 100 100 100 100 100 100 100 100 100
100 100 100 99 96 97 100 100 100 94 83 71 60 51 46 42 40 36 35 31 27 18 11 6 3 3 4 6 8 9 8 7 8 11 12 10 8 7 23 91 100 100 100 100 100 100 100 98 100 98 97 100 100 100
100 100 98 95 100 100 100 100 97 87 75 62 54 50 44 41 41 38 33 28 20 13 6 4 4 4 6 10 9 7 5 3 4 10 12 11 9 10 16 61 100 100 100 100 100 100 100 100 100 100 100 100 100 100
99 99 100 100 100 100 99 93 85 78 70 62 56 48 44 41 38 36 30 22 15 7 4 4 5 9 11 10 9 9 6 4 5 10 13 13 9 12 43 68 100 100 100 100 100 100 100 100 100 100 100 100 100 100
100 100 100 100 100 99 95 92 87 79 70 59 52 49 45 41 37 34 26 18 8 4 4 5 9 14 14 12 27 26 19 8 8 12 13 11 10 63 51 81 100 100 100 100 100 100 100 100 100 100 100 100 100 100